Regional Weather Roundup
Issued by NWS Green Bay, WI

Home | Current Version | Previous Version | Graphics & Text | Print | Product List | Glossary Off
Versions: 1 2 3 4 5 6 7 8 9 10 11 12 13 14 15 16 17 18 19 20 21 22 23 24 25 26 27 28 29 30 31 32 33 34 35 36 37 38 39 40 41 42 43 44 45 46 47 48 49 50

000
ASUS43 KGRB 301000
RWRGRB

NORTH-CENTRAL AND NORTHEAST WISCONSIN REGIONAL WEATHER ROUNDUP
NATIONAL WEATHER SERVICE GREEN BAY WI
500 AM CDT SAT MAY 30 2015

WIZ005-009-010>012-018-019-301100-
NORTH CENTRAL WISCONSIN

CITY           SKY/WX    TMP DP  RH WIND       PRES   REMARKS
IRONWOOD       CLOUDY    45  43  93 NW6       30.08S
MANITOWISH WTR NOT AVBL
ARBOR VITAE    NOT AVBL
EAGLE RIVER    NOT AVBL
LAND O LAKES   NOT AVBL
RHINELANDER    MOCLDY    51  49  92 VRB6      30.04R
PHILLIPS       NOT AVBL
ANTIGO         NOT AVBL
TOMAHAWK       NOT AVBL
MERRILL        NOT AVBL
$$

WIZ013-073-301100-
NORTHEAST WISCONSIN

CITY           SKY/WX    TMP DP  RH WIND       PRES   REMARKS
IRON MOUNTAIN  CLOUDY    51  48  89 N10       30.01R
MARINETTE      CLOUDY    52  46  82 N7        29.99R
$$

WIZ017-030-035>037-045-301100-
CENTRAL WISCONSIN

CITY           SKY/WX    TMP DP  RH WIND       PRES   REMARKS
MEDFORD        NOT AVBL
WAUSAU         CLOUDY    55  52  89 N7        29.99R
MOSINEE        NOT AVBL
MARSHFIELD     CLOUDY    55  51  86 N9        30.00R
WISC RAPIDS    LGT RAIN  58  55  90 NE14      29.98R
STEVENS POINT  NOT AVBL
WAUPACA        NOT AVBL
SHAWANO        NOT AVBL
CLINTONVILLE   NOT AVBL
$$

WIZ038-039-048-051-301100-
FOX VALLEY

CITY           SKY/WX    TMP DP  RH WIND       PRES   REMARKS
NWS GREEN BAY  LGT RAIN  57  55  93 N16       29.97R FOG
APPLETON       NOT AVBL
OSHKOSH        CLOUDY    60  58  92 NE14G28   29.94R
FOND DU LAC    LGT RAIN  64  63  96 CALM      29.93R
$$

WIZ022-050-052-301100-
EAST CENTRAL WISCONSIN

CITY           SKY/WX    TMP DP  RH WIND       PRES   REMARKS
STURGEON BAY   CLOUDY    52  46  82 N15G21    30.01R
MANITOWOC      NOT AVBL
SHEBOYGAN      LGT RAIN  54  53  97 NE14G24   29.96R
$$

LMZ563-521-522-541>543-301100-
LAKESHORE

STATION/POSITION TIME  TEMP    WIND        PRES    VSBY  WAVE
                       AIR SEA DIR/SP/G                  HT/PER
                 (UTC) (F)     (DEG/KT/KT) (MB)    (MI)  (FT/S)
SHEBOYGAN LKSHOR 0900   55      20/ 15/ 16 1013.2R
KEWAUNEE LKSHORE 0900   51      20/  8/ 11 1013.7R
ALGOMA MARINA    0923          360/ 10/ 15   N/A
NORTHPORT PIER   0900   52     340/ 13/ 15 1014.9R
N MID LAKE BUOY  0850   43 37  310/  8/  8 1014.3R         1/ 3
SISTER BAY LKSHO 0903   51     360/ 12/ 15   N/A
CHAMBERS ISLAND  0900   53     340/ 13/ 17 1014.9R
MENOMINEE LKSHOR 0900   53     360/ 17/ 24 1015.4R
$$



USA.gov is the U.S. government's official web portal to all federal, state and local government web resources and services.